Startseite
Über Mich
AHP4
Galerie
Sehschlangen
Tourenbuch
Bookmarks
Elektronik
Bewertung
Geschichten
[Tagesmessung] [Jahreswerte] [Information]

Messwerte vom 25.04.2022

Die letzten Messwerte von 23:58:47 Uhr:
KategorieMesswert
Temperatur [°C]8
Luftdruck [mBar]998
Sonneneinstrahlung0
Wind [km/h]0 aus West
Niederschlag [l/m²]0
rel.Luftfeucht.90.4%
CO2 [ppm]449

Diagramme
Messwerte vom 25.04.2022
Tagesaggregation
KategorieMinimumMaximumSchnittSumme
Temperatur [°C]5199.3417
Luftdruck [mBar]991999995.5542
Sonneneinstrahlung247119.6500
Wind [km/h]12
rF [%]47.396.684.09
Niederschlag [l/m²]3.09
CO2 [ppm]413463440.1
Einordnung alsVegetationstag

Messungen an benachbarten Tagen: Zur Jahresaggregation 2022
Tabelle aller Messwerte
UhrzeitTemperatur [°C]Luftdruck [mBar]SonneWind [km/h]RichtungRegen [l/m²]rF [%]CO2 [ppm]
00:01:47 7 991 0 2 SW 0 89 436
00:04:45 7 991 0 4 N 0 89.2 436
00:07:45 7 991 0 2 N 0 89.1 436
00:10:46 7 991 0 2 W 0 88.8 436
00:13:48 7 991 0 2 N 0 88.6 442
00:16:46 7 991 0 1 O 0 88.5 446
00:19:47 7 991 0 2 NO 0 88.5 445
00:22:49 7 992 0 3 NO 0 88.9 437
00:25:45 7 991 0 5 NO 0 89.4 434
00:28:45 7 991 0 3 N 0 89.4 428
00:31:45 7 991 0 2 S 0 89.1 425
00:34:46 7 991 0 6 NO 0 89.2 431
00:37:46 8 991 0 5 N 0 89.2 446
00:40:47 8 991 0 5 NO 0 89.2 451
00:43:47 8 991 0 3 NO 0 89.2 448
00:46:45 8 991 0 7 NW 0 89.3 439
00:49:48 8 991 0 1 W 0 89.3 439
00:52:45 8 991 0 3 O 0 89.3 442
00:55:46 8 992 0 7 NO 0 89.3 442
00:58:44 8 991 0 6 N 0 89.2 445
01:01:47 8 991 0 8 O 0 89.2 442
01:04:50 7 991 0 5 O 0 89.2 445
01:07:47 7 991 0 3 N 0 89.5 440
01:10:44 7 992 0 6 N 0 89.7 434
01:13:45 7 991 0 4 N 0 90.1 433
01:16:48 7 991 0 6 NO 0 90.6 439
01:19:44 7 992 0 8 N 0 91 448
01:22:47 7 991 0 5 N 0 91.6 448
01:25:47 7 991 0 5 NO 0 91.8 450
01:28:45 7 991 0 10 NO 0 92 439
01:31:49 7 992 0 2 NO 0 92.4 440
01:34:46 7 992 0 8 O 0 92.6 439
01:37:46 7 991 0 4 S 0 92.8 439
01:40:46 7 992 0 4 O 0 93 451
01:43:47 7 992 0 5 O 0 93.2 448
01:46:46 7 991 0 7 N 0 93.3 446
01:49:44 7 991 0 9 O 0 93.4 442
01:52:46 7 992 0 3 N 0 93.5 443
01:55:47 7 992 0 6 NW 0 93.6 451
01:58:46 7 992 0 6 S 0 93.9 448
02:01:46 6 992 0 2 NW 0 95.1 439
02:04:45 6 992 0 5 N 0 96.1 433
02:07:49 6 993 0 5 NO 0 96.6 433
02:10:46 6 992 0 3 N 0 96.6 431
02:13:50 6 992 0 2 NO 0 96.6 433
02:16:44 6 992 0 4 O 0 96.6 433
02:19:48 6 991 0 4 N 0.2575 96.6 445
02:22:46 6 993 0 9 N 0 96.6 445
02:25:45 6 992 0 6 N 0 96.6 445
02:28:46 6 992 0 6 N 0 96.6 448
02:31:47 6 992 0 1 NO 0 96.6 440
02:34:45 6 992 0 5 N 0 96.6 442
02:37:46 6 993 0 5 NO 0.2575 96.6 442
02:40:46 6 993 0 3 N 0 96.6 445
02:43:46 6 992 0 1 NO 0 96.6 451
02:46:46 6 993 0 4 NW 0 96.6 448
02:49:46 6 992 0 6 NO 0 96.6 448
02:52:48 6 992 0 3 O 0 96.6 448
02:55:44 6 992 0 3 0 96.6 440
02:58:45 6 993 0 1 NO 0 96.6 439
03:01:46 6 993 0 1 NW 0 96.6 441
03:04:46 6 992 0 2 O 0 96.6 445
03:07:47 6 993 0 2 NO 0 96.6 442
03:10:47 6 992 0 2 N 0 96.6 435
03:13:46 6 993 0 1 O 0 96.6 430
03:16:47 6 993 0 2 NO 0 96.6 439
03:19:45 6 993 0 2 N 0 96.6 443
03:22:47 6 992 0 3 NO 0 96.6 442
03:25:47 6 993 0 4 N 0.2575 96.6 445
03:28:45 6 993 0 3 N 0 96.6 445
03:31:46 6 992 0 4 NO 0 96.6 442
03:34:44 6 993 0 6 O 0 96.6 439
03:37:46 6 993 0 2 N 0 96.6 439
03:40:48 6 993 0 12 NO 0 96.6 439
03:43:46 6 993 0 4 N 0 96.6 440
03:46:45 6 993 0 5 O 0 96.6 442
03:49:45 6 993 0 3 NW 0 96.6 442
03:52:46 6 993 0 11 N 0 96.6 446
03:55:45 6 993 0 3 NO 0 96.6 448
03:58:45 6 993 0 5 SO 0 96.6 447
04:01:47 6 993 0 3 NO 0 96.6 446
04:04:47 6 993 0 3 NO 0 96.6 452
04:07:47 6 993 0 2 O 0 96.6 451
04:10:52 6 993 0 3 N 0 96.6 451
04:13:44 6 993 0 1 N 0 96.6 451
04:16:44 6 994 0 6 N 0 96.6 454
04:19:48 6 993 0 2 O 0 96.6 448
04:22:44 6 993 0 3 NO 0 96.6 444
04:25:44 6 993 0 4 N 0 96.6 439
04:28:45 6 993 0 2 NO 0 96.6 439
04:31:46 6 993 0 5 SO 0 96.6 442
04:34:44 6 994 0 4 N 0 96.6 442
04:37:46 6 993 0 0 O 0.2575 96.6 442
04:40:45 5 993 0 2 S 0 96.6 448
04:43:45 5 994 0 1 N 0 96.6 445
04:46:46 5 993 0 3 NO 0.2575 96.6 448
04:49:45 5 992 0 3 0 96.6 448
04:52:48 5 993 0 2 N 0 96.6 439
04:55:46 5 994 0 4 N 0.2575 96.6 448
04:58:48 5 994 0 6 NW 0 96.6 452
05:01:45 5 992 0 4 0.2575 96.6 454
05:04:45 5 994 0 2 N 0 96.6 448
05:07:48 5 993 0 2 N 0.2575 96.6 448
05:10:46 5 993 0 2 NW 0 96.6 451
05:13:51 5 993 0 2 O 0.2575 96.6 454
05:16:45 5 993 0 3 N 0 96.6 451
05:19:47 5 993 0 3 N 0.2575 96.6 446
05:22:44 5 993 0 4 N 0 96.6 447
05:25:48 5 994 0 2 NW 0 96.6 451
05:28:47 5 994 0 0 O 0 96.6 447
05:31:46 5 994 0 3 NW 0 96.6 446
05:34:47 5 994 0 3 SO 0.2575 96.6 442
05:37:46 5 994 0 5 N 0 96.6 442
05:40:45 5 994 0 2 O 0 96.6 444
05:43:45 5 994 3 6 N 0 96.6 442
05:46:44 5 993 4 1 N 0 96.6 442
05:49:46 5 993 6 1 N 0 96.6 448
05:52:43 5 994 7 4 N 0 96.6 445
05:55:49 5 994 12 5 NW 0.2575 96.6 448
05:58:47 5 994 16 1 O 0 96.6 448
06:01:45 5 994 17 1 N 0 96.6 452
06:04:45 5 994 23 0 O 0 96.6 451
06:07:46 5 994 29 1 W 0 96.6 448
06:10:48 5 994 28 1 NW 0 96.6 448
06:13:48 5 995 37 2 SW 0 96.6 448
06:16:47 5 994 41 2 N 0 96.6 443
06:19:47 5 994 43 1 NO 0 96.6 439
06:22:48 5 994 47 2 O 0 96.6 448
06:25:47 5 994 52 1 O 0 96.6 460
06:28:49 5 994 57 1 NO 0 96.6 456
06:31:49 5 994 59 0 NO 0 96.6 454
06:34:47 5 995 70 1 NO 0 96.6 454
06:37:47 5 994 74 1 O 0 96.6 454
06:40:47 5 994 80 4 SO 0 96.6 451
06:43:47 5 995 91 3 O 0 96.6 448
06:46:48 5 994 89 1 SO 0 96.6 454
06:49:46 5 995 88 2 N 0 96.6 454
06:52:46 5 995 91 0 O 0 96.6 454
06:55:48 5 994 94 0 N 0 96.6 448
06:58:47 5 994 98 3 NW 0 96.6 442
07:01:48 5 995 101 2 N 0 96.6 449
07:04:50 5 995 107 1 NW 0 96.6 442
07:07:47 5 995 106 1 O 0 96.6 445
07:10:45 5 994 105 1 S 0 96.6 445
07:13:48 5 995 116 0 NO 0 96.6 448
07:16:48 5 995 118 0 NW 0 96.6 445
07:19:46 5 994 129 2 N 0 96.6 448
07:22:48 5 995 133 5 NW 0 96.6 448
07:25:54 5 995 143 6 N 0 96.6 452
07:28:48 5 995 150 2 N 0 96.6 451
07:31:47 5 994 158 1 SO 0 96.6 454
07:34:46 5 995 163 1 O 0 96.6 454
07:37:47 5 995 169 7 N 0 96.6 448
07:40:47 6 995 174 5 N 0 96.6 451
07:43:46 6 994 180 6 NO 0 96.6 451
07:46:46 6 995 180 5 N 0 96.6 454
07:49:47 6 995 182 3 NO 0 96.6 454
07:52:48 6 994 176 8 NW 0 96.6 459
07:55:49 6 995 177 2 NO 0 96.6 454
07:58:46 6 995 179 2 NW 0 96.6 454
08:01:48 6 995 180 3 N 0 96.6 448
08:04:48 6 995 180 2 N 0 96.6 445
08:07:48 6 995 172 2 NO 0 96.6 445
08:10:48 6 995 169 1 NO 0 96.6 445
08:13:49 6 995 172 1 NW 0 96.6 452
08:16:48 6 995 183 2 NO 0 96.6 451
08:19:48 6 995 196 4 NW 0 96.6 452
08:22:49 6 995 198 8 N 0 96.6 442
08:25:49 6 995 195 2 NW 0 96.6 451
08:28:47 6 995 193 6 NO 0 96.6 457
08:31:48 6 995 192 4 NW 0 96.6 459
08:34:46 6 995 187 3 N 0 96.6 454
08:37:48 6 995 193 2 NO 0 96.6 454
08:40:48 6 995 188 2 SO 0 96.6 460
08:43:49 6 995 188 3 NW 0 96.6 456
08:46:45 6 995 193 1 N 0 96.6 451
08:49:48 6 995 192 0 SO 0 96.6 457
08:52:46 6 995 194 5 N 0 96.6 457
08:55:47 6 995 192 3 N 0 96.6 455
08:58:46 6 995 193 4 0 96.6 449
09:01:48 6 995 192 0 O 0 96.6 459
09:04:51 6 995 192 0 NW 0 96.6 460
09:07:47 6 995 193 2 SO 0 96.6 460
09:10:50 6 995 194 0 SO 0 96.6 460
09:13:46 6 995 195 3 N 0 96.6 451
09:16:44 6 995 194 2 N 0 96.6 454
09:19:49 6 995 192 1 NO 0 96.6 455
09:22:47 6 995 192 4 N 0 96.6 456
09:25:47 7 995 193 4 O 0 96.6 454
09:28:49 6 995 194 3 NW 0 96.6 451
09:31:47 6 995 195 5 0 96.6 446
09:34:47 6 995 198 4 N 0 96.6 445
09:37:47 6 995 197 4 O 0 96.6 451
09:40:45 6 995 197 5 N 0 96.6 456
09:43:46 6 995 195 2 O 0 96.6 454
09:46:47 6 995 196 0 SO 0 96.6 451
09:49:48 6 995 196 3 NO 0 96.6 448
09:52:46 6 995 196 1 W 0 96.6 448
09:55:47 6 995 197 4 N 0 96.6 451
09:58:48 7 995 198 2 NO 0 96.6 454
10:01:48 7 995 197 3 NO 0 96.6 452
10:04:47 7 995 197 2 NW 0 96.6 448
10:07:47 7 995 199 2 N 0 96.6 448
10:10:47 7 995 200 1 O 0 96.6 454
10:13:45 7 995 201 2 O 0 96.6 454
10:16:47 7 995 202 4 NO 0 96.6 457
10:19:49 7 996 205 3 NW 0 96.6 454
10:22:48 7 996 204 1 SO 0 96.6 459
10:25:50 7 995 203 2 SW 0 96.6 457
10:28:55 7 996 202 3 N 0 96.6 458
10:31:48 7 995 202 5 NW 0 96.6 457
10:34:46 7 995 200 2 N 0 96.6 451
10:37:49 7 995 205 3 NO 0 96.6 454
10:40:46 7 996 204 2 N 0 96.6 448
10:43:48 7 995 202 4 SW 0 96.6 453
10:46:47 7 996 202 8 NO 0 96.6 454
10:49:47 7 996 205 4 W 0 96.6 448
10:52:46 7 995 210 0 O 0 96.6 446
10:55:49 7 995 214 1 SO 0 96.6 452
10:58:49 7 996 215 5 N 0 96.6 460
11:01:46 8 995 215 2 O 0 96.6 460
11:04:45 8 996 211 1 N 0 96.4 451
11:07:50 8 996 210 3 SW 0 95.8 445
11:10:46 8 995 210 1 SO 0 95.7 448
11:13:47 8 996 209 0 N 0 96.2 445
11:16:49 8 996 208 2 NW 0 96.1 450
11:19:48 8 996 209 1 SO 0 95.8 451
11:22:47 8 996 205 0 NO 0 95.5 448
11:25:43 8 996 204 0 0 96.3 447
11:28:46 8 996 205 3 N 0 96.2 449
11:31:48 8 996 206 0 NO 0 96.4 445
11:34:45 8 996 208 0 N 0 96.4 439
11:37:46 8 996 209 0 O 0 95.9 445
11:40:48 8 996 210 4 NW 0 95.9 451
11:43:47 8 996 211 5 NW 0 95.2 448
11:46:47 8 996 215 1 NO 0 94.5 450
11:49:46 8 996 216 2 NO 0 93.5 451
11:52:47 8 996 218 0 O 0 93.8 451
11:55:46 8 996 218 0 SO 0 94.8 451
11:58:47 9 996 216 2 NO 0 94.3 448
12:01:48 9 996 214 6 NW 0 92.8 444
12:04:47 9 996 215 2 N 0 92.7 451
12:07:46 9 997 218 2 O 0 93.4 442
12:10:49 9 996 219 4 NO 0 92 451
12:13:50 9 996 220 3 NW 0 92.2 443
12:16:47 9 996 219 5 NO 0 92.5 445
12:19:48 9 996 218 5 N 0 91 451
12:22:46 9 996 220 4 0 91.4 457
12:25:50 9 996 222 0 O 0 92.3 463
12:28:47 9 996 223 1 SO 0 92.4 457
12:31:48 9 996 221 6 NO 0 91.4 460
12:34:48 9 996 219 5 NO 0 90 457
12:37:47 9 997 219 3 W 0 88.6 459
12:40:48 9 997 219 2 NW 0 89.3 454
12:43:48 9 997 220 7 O 0 89.8 451
12:46:46 9 997 220 3 O 0 89.1 454
12:49:46 9 996 223 0 O 0 89 453
12:52:46 9 997 223 3 N 0 89.5 449
12:55:46 10 997 224 1 O 0 88.2 448
12:58:31 8 997 225 1 O 0 81.2 456
13:01:50 10 997 226 3 NO 0 85.6 456
13:04:47 10 997 223 0 O 0 85.8 454
13:07:47 10 997 222 7 NO 0 86.6 453
13:10:47 10 997 222 2 O 0 86.2 446
13:13:48 10 997 219 1 SO 0 87.8 445
13:16:44 10 997 221 0 O 0 88.5 448
13:19:49 10 997 221 2 NO 0 87.7 448
13:22:46 10 997 221 3 N 0 87 454
13:25:50 10 996 223 2 NW 0 86 448
13:28:49 10 997 225 3 N 0 85.6 448
13:31:46 10 997 226 4 0 84.6 455
13:34:49 10 997 229 6 NO 0 85.2 451
13:37:47 11 997 229 3 NO 0 85 457
13:40:47 11 997 228 3 SO 0 85.5 453
13:43:48 11 997 227 1 NO 0 82.4 454
13:46:49 11 997 227 3 O 0 82.1 448
13:49:48 11 997 227 5 N 0 82.2 446
13:52:48 11 998 228 2 N 0 80.8 439
13:55:46 11 998 234 4 W 0 81.3 443
13:58:48 11 998 233 4 NW 0 80.3 445
14:01:48 12 998 236 3 S 0 81.3 443
14:04:49 13 998 238 1 O 0 81.8 442
14:07:49 13 997 238 3 NO 0 75.1 436
14:10:31 11 997 238 6 N 0 68.1 442
14:13:47 13 997 238 3 SO 0 71.7 442
14:16:48 13 998 238 4 NO 0 72.7 443
14:19:47 14 997 239 2 O 0 79.8 442
14:22:30 12 997 239 1 W 0 61.1 445
14:25:29 12 997 241 8 O 0 54.1 442
14:28:48 14 998 242 2 O 0 73.4 445
14:31:48 14 997 242 6 NO 0 70.9 442
14:34:46 14 996 242 1 S 0 73.2 442
14:37:47 14 997 243 0 SO 0 74.3 433
14:40:48 15 997 240 5 N 0 69.4 434
14:43:48 15 998 243 2 O 0 70.1 436
14:46:49 15 997 240 8 NW 0 68.3 436
14:49:50 15 997 243 0 O 0 69.2 429
14:52:31 14 997 244 2 NO 0 61.3 436
14:55:44 14 997 239 6 S 0 72.5 436
14:58:47 15 997 244 7 S 0 77.7 436
15:01:48 17 998 244 8 SO 0 70.3 431
15:04:47 17 998 244 1 S 0 69.2 431
15:07:48 18 997 245 2 N 0 61.7 427
15:10:46 17 997 245 4 N 0 61.2 429
15:13:34 16 998 245 5 O 0 54.2 433
15:16:48 16 998 243 4 S 0 66 434
15:19:47 16 997 239 4 NO 0 63.1 430
15:22:48 16 997 245 6 NO 0 64.9 433
15:25:46 15 997 245 5 N 0 65 436
15:28:49 16 998 241 0 NO 0 63.5 437
15:31:48 16 998 245 3 NO 0 63 439
15:34:48 16 997 245 3 S 0 66.9 434
15:37:49 17 997 246 7 S 0 65.3 434
15:40:29 15 996 246 4 N 0 56 431
15:43:45 18 996 245 4 N 0 61.2 436
15:46:50 17 997 246 0 SO 0 62.7 431
15:49:50 16 997 245 2 SO 0 60.7 433
15:52:49 17 997 245 3 N 0 64.8 430
15:55:49 17 996 245 3 NW 0 63.2 421
15:58:48 17 998 246 4 S 0 62.1 425
16:01:50 17 998 246 6 NW 0 61.9 431
16:04:46 17 997 245 1 NW 0 62.2 431
16:07:47 17 997 235 1 W 0 60.9 431
16:10:48 17 997 244 2 SW 0 62.9 428
16:13:49 18 997 236 1 SW 0 63.6 434
16:16:47 17 997 239 3 N 0 57.6 425
16:19:47 17 997 238 4 S 0 59.2 430
16:22:48 17 997 247 0 W 0 60.6 419
16:25:48 18 997 247 4 SO 0 61.5 422
16:28:49 18 997 247 2 NW 0 57.5 418
16:31:48 18 998 247 1 W 0 57.7 424
16:34:48 18 998 247 4 N 0 56.2 425
16:37:46 18 997 236 4 O 0 54 421
16:40:47 17 996 232 4 O 0 54.7 421
16:43:50 16 997 247 3 NW 0 58.4 422
16:46:48 16 998 247 3 O 0 58.9 422
16:49:48 17 997 247 3 S 0 57.4 422
16:52:48 17 998 247 5 N 0 56.8 423
16:55:48 17 998 247 1 O 0 56.6 424
16:58:47 17 998 247 0 SO 0 56.7 427
17:01:50 17 996 246 0 SO 0 57.8 422
17:04:50 17 997 246 1 NW 0 58.2 422
17:07:48 17 997 246 4 O 0 55 422
17:10:49 17 997 246 1 SO 0 54.6 425
17:13:47 17 998 246 1 S 0 53.2 431
17:16:47 17 996 240 2 O 0 52.7 424
17:19:48 17 997 245 2 SO 0 54.2 416
17:22:47 18 997 245 3 SO 0 55.6 416
17:25:46 18 997 245 0 S 0 55.5 413
17:28:47 19 997 245 4 SO 0 53.6 419
17:31:48 19 997 244 3 NO 0 47.3 422
17:34:46 18 997 244 3 N 0 48.6 422
17:37:46 18 997 243 3 O 0 50.6 416
17:40:47 18 997 241 3 S 0 52.5 413
17:43:46 18 997 241 4 S 0 51.5 413
17:46:46 18 997 239 1 SO 0 52.1 418
17:49:46 17 997 231 2 S 0 53.4 416
17:52:50 17 997 228 5 SO 0 53.8 419
17:55:47 17 997 226 1 S 0 54.7 419
17:58:48 17 997 224 0 S 0 56 416
18:01:48 17 997 224 4 N 0 51.6 419
18:04:47 16 997 223 3 NO 0 52 415
18:07:48 16 997 223 3 SO 0 55.9 418
18:10:48 15 997 223 0 O 0 57.2 422
18:13:50 15 996 223 0 SO 0 58.5 427
18:16:48 15 998 223 0 O 0 59.3 430
18:19:48 15 997 222 0 SO 0 59.6 425
18:22:50 15 997 221 0 SO 0 60.2 419
18:25:46 15 997 219 0 O 0 59.4 422
18:28:46 15 997 218 2 N 0 57.1 419
18:31:46 14 997 217 2 O 0 57.1 416
18:34:47 14 997 218 2 N 0 57.9 418
18:37:47 14 997 219 1 N 0 58.1 422
18:40:50 14 997 220 3 NW 0 57.9 425
18:43:47 14 997 220 3 NO 0 57.5 430
18:46:49 14 997 221 5 NW 0 57.6 433
18:49:47 14 996 221 2 N 0 57.1 426
18:52:47 14 997 221 1 W 0 58.6 419
18:55:49 14 997 222 0 NW 0 58.3 419
18:58:46 14 998 221 0 N 0 58.2 424
19:01:45 14 997 219 1 N 0 59.1 416
19:04:48 14 996 218 0 NO 0 58.1 419
19:07:49 14 997 216 0 NW 0 58.3 424
19:10:50 14 997 216 0 NW 0 58.4 430
19:13:45 14 997 212 0 S 0 58.7 416
19:16:47 13 998 212 1 N 0 58.4 419
19:19:47 13 997 209 1 NO 0 58.4 419
19:22:49 13 997 205 2 N 0 58.6 425
19:25:49 13 998 200 0 N 0 59.1 424
19:28:46 13 997 195 0 N 0 60.2 424
19:31:47 13 997 189 0 N 0 60.7 419
19:34:49 13 998 184 0 N 0 60.9 427
19:37:49 13 998 173 1 N 0 61.3 422
19:40:49 13 998 155 0 N 0 62.1 430
19:43:49 13 998 140 0 N 0 62.4 431
19:46:48 13 998 128 1 W 0 64.3 427
19:49:50 12 998 120 6 W 0 68.4 425
19:52:49 12 998 122 4 NW 0 70.6 422
19:55:46 12 998 125 3 0 71.4 419
19:58:46 12 998 124 0 N 0 72 424
20:01:48 12 998 117 0 N 0 73 424
20:04:48 12 998 109 0 N 0 73.2 431
20:07:48 12 998 100 4 NW 0 73.1 433
20:10:48 12 998 97 4 W 0 74.5 431
20:13:49 12 998 95 5 W 0 75.6 428
20:16:49 11 998 90 2 W 0 76.2 422
20:19:47 11 998 81 1 W 0 76.4 413
20:22:49 11 998 72 3 NW 0 76.9 422
20:25:47 11 998 60 11 W 0 77.7 421
20:28:47 11 998 50 6 W 0 77.7 424
20:31:50 11 998 45 3 NW 0 77.1 416
20:34:50 11 998 38 2 NW 0 76.7 419
20:37:48 11 998 29 3 N 0 77.1 415
20:40:49 10 998 20 1 N 0 78 422
20:43:46 10 998 14 0 N 0 78 422
20:46:46 10 998 8 1 0 77.9 431
20:49:47 10 998 5 4 NW 0 78.5 430
20:52:46 10 998 3 1 N 0 79.3 431
20:55:46 10 998 0 1 0 79.7 433
20:58:46 10 998 0 2 N 0 79.9 431
21:01:44 10 998 0 0 N 0 79.3 430
21:04:46 10 998 0 0 N 0 79.3 422
21:07:47 10 998 0 0 N 0 79.4 428
21:10:49 10 998 0 0 N 0 79.4 430
21:13:46 10 998 0 0 N 0 79.4 430
21:16:48 10 998 0 0 N 0 79.6 422
21:19:46 10 998 0 0 N 0 79.8 424
21:22:45 10 998 0 0 N 0 79.8 431
21:25:46 10 998 0 0 N 0 80.1 436
21:28:45 10 998 0 0 N 0 80.1 430
21:31:46 10 998 0 0 N 0 80 422
21:34:45 9 998 0 0 N 0 80 431
21:37:45 9 998 0 0 N 0 80.1 430
21:40:45 9 998 0 0 N 0 80.6 430
21:43:46 9 998 0 0 N 0 80.6 428
21:46:49 9 998 0 0 N 0 80.6 434
21:49:46 9 998 0 0 N 0 80.7 433
21:52:47 9 998 0 0 N 0 80.8 442
21:55:45 9 998 0 0 N 0 81.1 433
21:58:45 9 998 0 0 N 0 81.9 436
22:01:47 9 998 0 0 N 0 82.1 434
22:04:47 9 998 0 0 N 0 82 434
22:07:47 9 998 0 0 N 0 82.2 433
22:10:46 9 998 0 0 N 0 82.4 430
22:13:45 9 998 0 0 N 0 82.4 430
22:16:46 9 998 0 0 N 0 82.5 430
22:19:46 9 998 0 0 N 0 82.6 430
22:22:48 9 998 0 0 N 0 82.9 436
22:25:45 9 998 0 0 N 0 83 445
22:28:47 9 998 0 0 N 0 84.1 442
22:31:47 9 998 0 0 N 0 85.4 439
22:34:46 9 998 0 0 N 0 86.1 433
22:37:47 9 998 0 0 N 0 86.8 428
22:40:47 9 998 0 0 N 0 87.2 436
22:43:46 9 998 0 0 N 0 86.6 439
22:46:45 9 998 0 0 N 0 86.5 445
22:49:47 9 998 0 1 N 0 86.5 442
22:52:47 9 998 0 2 W 0 86.9 442
22:55:47 9 998 0 2 W 0 87.8 442
22:58:48 9 998 0 0 W 0 88.7 448
23:01:47 9 998 0 0 SO 0 88.1 445
23:04:50 9 998 0 0 SO 0 88 442
23:07:48 9 998 0 0 SO 0 88.2 445
23:10:48 8 998 0 0 SO 0 88.1 442
23:13:46 8 998 0 0 SO 0 88.1 442
23:16:49 8 998 0 0 SW 0 88.2 433
23:19:47 8 998 0 0 SW 0 88.5 442
23:22:47 8 998 0 1 W 0 89.1 439
23:25:47 8 998 0 0 W 0 89.5 439
23:28:47 8 998 0 0 W 0 89.6 439
23:31:46 8 998 0 0 W 0 89 442
23:34:47 8 998 0 0 W 0 88.8 439
23:37:47 8 999 0 0 W 0 89 448
23:40:47 8 998 0 0 W 0 89 439
23:43:44 8 998 0 0 W 0 89.2 442
23:46:46 8 999 0 0 W 0 90.3 439
23:49:45 8 998 0 0 W 0 90.7 442
23:52:46 8 998 0 0 W 0 90.2 436
23:55:46 8 998 0 0 W 0 90.2 448
23:58:47 8 998 0 0 W 0 90.4 449

Letzte Änderung : 22-Jul-2022
Copyright Jens Köhler, Wolfsburg, Obere Dorfstraße 10d